iso_date,epoch_date,Year,Hour,Min,DOY,POS_DOY,Lat,Lon,BP,Ts,Ta,has_bp,has_ts,has_ta,BuoyID,Buoy_Type,Buoy_Owner,Logistics,Hemisphere
2019-10-14T00:00:00Z,1571011200,2019,0,0,287.0,287.0,84.663,135.0886,1000.0,-999.00,-999.0,yes,yes,yes,300234066081180,Snow_Buoy,AWI,MOSAiC,North
2019-10-14T01:00:02Z,1571014803,2019,1,0,287.0417,287.0417,84.66,135.0566,1000.4,-999.00,-999.0,yes,yes,yes,300234066081180,Snow_Buoy,AWI,MOSAiC,North
2019-10-14T02:00:57Z,1571018458,2019,2,1,287.084,287.084,84.657,135.031,1000.7,-999.00,-999.0,yes,yes,yes,300234066081180,Snow_Buoy,AWI,MOSAiC,North
2019-10-14T03:00:00Z,1571022000,2019,3,0,287.125,287.125,84.654,135.0108,1001.1,-999.00,-999.0,yes,yes,yes,300234066081180,Snow_Buoy,AWI,MOSAiC,North
2019-10-14T04:01:03Z,1571025663,2019,4,1,287.1674,287.1674,84.6512,134.9936,1001.6,-999.00,-999.0,yes,yes,yes,300234066081180,Snow_Buoy,AWI,MOSAiC,North
2019-10-14T05:00:57Z,1571029258,2019,5,1,287.209,287.209,84.6486,134.9796,1002.0,-999.00,-999.0,yes,yes,yes,300234066081180,Snow_Buoy,AWI,MOSAiC,North
2019-10-14T06:01:00Z,1571032860,2019,6,1,287.2507,287.2507,84.6458,134.9676,1002.6,-999.00,-999.0,yes,yes,yes,300234066081180,Snow_Buoy,AWI,MOSAiC,North
2019-10-14T07:00:02Z,1571036403,2019,7,0,287.2917,287.2917,84.6428,134.9556,1003.1,-999.00,-999.0,yes,yes,yes,300234066081180,Snow_Buoy,AWI,MOSAiC,North
2019-10-14T08:00:57Z,1571040058,2019,8,1,287.334,287.334,84.6396,134.9418,1003.6,-999.00,-999.0,yes,yes,yes,300234066081180,Snow_Buoy,AWI,MOSAiC,North
2019-10-14T09:01:00Z,1571043660,2019,9,1,287.3757,287.3757,84.6362,134.9242,1004.3,-999.00,-999.0,yes,yes,yes,300234066081180,Snow_Buoy,AWI,MOSAiC,North
2019-10-14T10:01:03Z,1571047263,2019,10,1,287.4174,287.4174,84.633,134.9012,1004.7,-999.00,-999.0,yes,yes,yes,300234066081180,Snow_Buoy,AWI,MOSAiC,North
2019-10-14T11:00:57Z,1571050858,2019,11,1,287.459,287.459,84.6304,134.8748,1005.1,-999.00,-999.0,yes,yes,yes,300234066081180,Snow_Buoy,AWI,MOSAiC,North
2019-10-14T12:01:00Z,1571054460,2019,12,1,287.5007,287.5007,84.6286,134.8464,1005.5,-999.00,-999.0,yes,yes,yes,300234066081180,Snow_Buoy,AWI,MOSAiC,North
2019-10-14T13:00:02Z,1571058003,2019,13,0,287.5417,287.5417,84.6272,134.821,1005.4,-999.00,-999.0,yes,yes,yes,300234066081180,Snow_Buoy,AWI,MOSAiC,North
2019-10-14T14:00:57Z,1571061658,2019,14,1,287.584,287.584,84.6264,134.8016,1005.5,-999.00,-999.0,yes,yes,yes,300234066081180,Snow_Buoy,AWI,MOSAiC,North
2019-10-14T15:00:00Z,1571065200,2019,15,0,287.625,287.625,84.6258,134.79,1005.7,-999.00,-999.0,yes,yes,yes,300234066081180,Snow_Buoy,AWI,MOSAiC,North
2019-10-14T16:00:02Z,1571068803,2019,16,0,287.6667,287.6667,84.6254,134.787,1006.0,-999.00,-999.0,yes,yes,yes,300234066081180,Snow_Buoy,AWI,MOSAiC,North
2019-10-14T16:59:57Z,1571072397,2019,17,0,287.7083,287.7083,84.6248,134.7918,1006.1,-999.00,-999.0,yes,yes,yes,300234066081180,Snow_Buoy,AWI,MOSAiC,North
2019-10-14T18:00:00Z,1571076000,2019,18,0,287.75,287.75,84.624,134.801,1006.3,-999.00,-999.0,yes,yes,yes,300234066081180,Snow_Buoy,AWI,MOSAiC,North
2019-10-14T19:00:02Z,1571079603,2019,19,0,287.7917,287.7917,84.6232,134.8108,1006.5,-999.00,-999.0,yes,yes,yes,300234066081180,Snow_Buoy,AWI,MOSAiC,North
2019-10-14T19:59:57Z,1571083197,2019,20,0,287.8333,287.8333,84.622,134.8184,1006.6,-999.00,-999.0,yes,yes,yes,300234066081180,Snow_Buoy,AWI,MOSAiC,North
2019-10-14T21:01:00Z,1571086860,2019,21,1,287.8757,287.8757,84.621,134.8212,1006.9,-999.00,-999.0,yes,yes,yes,300234066081180,Snow_Buoy,AWI,MOSAiC,North
2019-10-14T22:01:03Z,1571090463,2019,22,1,287.9174,287.9174,84.6204,134.817,1007.1,-999.00,-999.0,yes,yes,yes,300234066081180,Snow_Buoy,AWI,MOSAiC,North
2019-10-14T23:00:57Z,1571094058,2019,23,1,287.959,287.959,84.6202,134.806,1007.3,-999.00,-999.0,yes,yes,yes,300234066081180,Snow_Buoy,AWI,MOSAiC,North
2019-10-15T00:01:00Z,1571097660,2019,0,1,288.0007,288.0007,84.6204,134.7914,1007.7,-999.00,-999.0,yes,yes,yes,300234066081180,Snow_Buoy,AWI,MOSAiC,North
2019-10-15T01:01:03Z,1571101263,2019,1,1,288.0424,288.0424,84.6212,134.777,1007.8,-999.00,-999.0,yes,yes,yes,300234066081180,Snow_Buoy,AWI,MOSAiC,North
2019-10-15T02:00:57Z,1571104858,2019,2,1,288.084,288.084,84.6224,134.7656,1008.1,-999.00,-999.0,yes,yes,yes,300234066081180,Snow_Buoy,AWI,MOSAiC,North
2019-10-15T03:01:00Z,1571108460,2019,3,1,288.1257,288.1257,84.6236,134.7588,1008.2,-999.00,-999.0,yes,yes,yes,300234066081180,Snow_Buoy,AWI,MOSAiC,North
2019-10-15T04:01:03Z,1571112063,2019,4,1,288.1674,288.1674,84.6248,134.7586,1008.5,-999.00,-999.0,yes,yes,yes,300234066081180,Snow_Buoy,AWI,MOSAiC,North
2019-10-15T05:00:57Z,1571115658,2019,5,1,288.209,288.209,84.6258,134.7616,1008.8,-999.00,-999.0,yes,yes,yes,300234066081180,Snow_Buoy,AWI,MOSAiC,North
2019-10-15T06:01:00Z,1571119260,2019,6,1,288.2507,288.2507,84.6262,134.7664,1009.2,-999.00,-999.0,yes,yes,yes,300234066081180,Snow_Buoy,AWI,MOSAiC,North
2019-10-15T07:01:03Z,1571122863,2019,7,1,288.2924,288.2924,84.6264,134.7688,1009.5,-999.00,-999.0,yes,yes,yes,300234066081180,Snow_Buoy,AWI,MOSAiC,North
2019-10-15T08:00:57Z,1571126458,2019,8,1,288.334,288.334,84.6262,134.7658,1010.0,-999.00,-999.0,yes,yes,yes,300234066081180,Snow_Buoy,AWI,MOSAiC,North
2019-10-15T09:01:00Z,1571130060,2019,9,1,288.3757,288.3757,84.6258,134.7556,1010.5,-999.00,-999.0,yes,yes,yes,300234066081180,Snow_Buoy,AWI,MOSAiC,North
2019-10-15T10:01:03Z,1571133663,2019,10,1,288.4174,288.4174,84.6256,134.7382,1010.9,-999.00,-999.0,yes,yes,yes,300234066081180,Snow_Buoy,AWI,MOSAiC,North
2019-10-15T11:00:57Z,1571137258,2019,11,1,288.459,288.459,84.6256,134.7148,1011.2,-999.00,-999.0,yes,yes,yes,300234066081180,Snow_Buoy,AWI,MOSAiC,North
2019-10-15T12:01:00Z,1571140860,2019,12,1,288.5007,288.5007,84.626,134.688,1011.3,-999.00,-999.0,yes,yes,yes,300234066081180,Snow_Buoy,AWI,MOSAiC,North
2019-10-15T13:01:03Z,1571144463,2019,13,1,288.5424,288.5424,84.6268,134.6616,1011.5,-999.00,-999.0,yes,yes,yes,300234066081180,Snow_Buoy,AWI,MOSAiC,North
2019-10-15T14:00:57Z,1571148058,2019,14,1,288.584,288.584,84.6278,134.6386,1011.9,-999.00,-999.0,yes,yes,yes,300234066081180,Snow_Buoy,AWI,MOSAiC,North
2019-10-15T15:01:00Z,1571151660,2019,15,1,288.6257,288.6257,84.6288,134.6212,1012.2,-999.00,-999.0,yes,yes,yes,300234066081180,Snow_Buoy,AWI,MOSAiC,North
2019-10-15T16:00:02Z,1571155203,2019,16,0,288.6667,288.6667,84.6296,134.6096,1012.3,-999.00,-999.0,yes,yes,yes,300234066081180,Snow_Buoy,AWI,MOSAiC,North
2019-10-15T17:00:57Z,1571158858,2019,17,1,288.709,288.709,84.6302,134.601,1012.4,-999.00,-999.0,yes,yes,yes,300234066081180,Snow_Buoy,AWI,MOSAiC,North
2019-10-15T18:01:00Z,1571162460,2019,18,1,288.7507,288.7507,84.6302,134.5896,1012.7,-999.00,-999.0,yes,yes,yes,300234066081180,Snow_Buoy,AWI,MOSAiC,North
2019-10-15T19:01:03Z,1571166063,2019,19,1,288.7924,288.7924,84.6302,134.567,1012.8,-999.00,-999.0,yes,yes,yes,300234066081180,Snow_Buoy,AWI,MOSAiC,North
2019-10-15T20:01:58Z,1571169718,2019,20,2,288.8347,288.8347,84.6298,134.5374,1013.0,-999.00,-999.0,yes,yes,yes,300234066081180,Snow_Buoy,AWI,MOSAiC,North
2019-10-15T21:02:00Z,1571173321,2019,21,2,288.8764,288.8764,84.6294,134.4982,1013.3,-999.00,-999.0,yes,yes,yes,300234066081180,Snow_Buoy,AWI,MOSAiC,North
2019-10-15T22:01:03Z,1571176863,2019,22,1,288.9174,288.9174,84.629,134.4422,1013.6,-999.00,-999.0,yes,yes,yes,300234066081180,Snow_Buoy,AWI,MOSAiC,North
2019-10-15T23:00:57Z,1571180458,2019,23,1,288.959,288.959,84.6284,134.3788,1013.5,-999.00,-999.0,yes,yes,yes,300234066081180,Snow_Buoy,AWI,MOSAiC,North
2019-10-16T00:01:00Z,1571184060,2019,0,1,289.0007,289.0007,84.6284,134.317,1013.5,-999.00,-999.0,yes,yes,yes,300234066081180,Snow_Buoy,AWI,MOSAiC,North
2019-10-16T01:00:02Z,1571187603,2019,1,0,289.0417,289.0417,84.629,134.2594,1013.6,-999.00,-999.0,yes,yes,yes,300234066081180,Snow_Buoy,AWI,MOSAiC,North
2019-10-16T02:00:57Z,1571191258,2019,2,1,289.084,289.084,84.6298,134.2088,1013.6,-999.00,-999.0,yes,yes,yes,300234066081180,Snow_Buoy,AWI,MOSAiC,North
2019-10-16T03:01:00Z,1571194860,2019,3,1,289.1257,289.1257,84.6308,134.168,1013.7,-999.00,-999.0,yes,yes,yes,300234066081180,Snow_Buoy,AWI,MOSAiC,North
2019-10-16T04:01:03Z,1571198463,2019,4,1,289.1674,289.1674,84.6314,134.1368,1013.7,-999.00,-999.0,yes,yes,yes,300234066081180,Snow_Buoy,AWI,MOSAiC,North
2019-10-16T05:00:57Z,1571202058,2019,5,1,289.209,289.209,84.6314,134.1106,1013.6,-999.00,-999.0,yes,yes,yes,300234066081180,Snow_Buoy,AWI,MOSAiC,North
2019-10-16T06:01:00Z,1571205660,2019,6,1,289.2507,289.2507,84.631,134.0878,1013.7,-999.00,-999.0,yes,yes,yes,300234066081180,Snow_Buoy,AWI,MOSAiC,North
2019-10-16T07:01:03Z,1571209263,2019,7,1,289.2924,289.2924,84.63,134.0622,1013.6,-999.00,-999.0,yes,yes,yes,300234066081180,Snow_Buoy,AWI,MOSAiC,North
2019-10-16T08:00:57Z,1571212858,2019,8,1,289.334,289.334,84.6286,134.0334,1013.8,-999.00,-999.0,yes,yes,yes,300234066081180,Snow_Buoy,AWI,MOSAiC,North
2019-10-16T09:01:00Z,1571216460,2019,9,1,289.3757,289.3757,84.6272,133.9978,1013.8,-999.00,-999.0,yes,yes,yes,300234066081180,Snow_Buoy,AWI,MOSAiC,North
2019-10-16T10:00:02Z,1571220003,2019,10,0,289.4167,289.4167,84.6262,133.9558,1013.9,-999.00,-999.0,yes,yes,yes,300234066081180,Snow_Buoy,AWI,MOSAiC,North
2019-10-16T11:00:57Z,1571223658,2019,11,1,289.459,289.459,84.6256,133.908,1013.9,-999.00,-999.0,yes,yes,yes,300234066081180,Snow_Buoy,AWI,MOSAiC,North
2019-10-16T12:01:00Z,1571227260,2019,12,1,289.5007,289.5007,84.6254,133.859,1013.7,-999.00,-999.0,yes,yes,yes,300234066081180,Snow_Buoy,AWI,MOSAiC,North
2019-10-16T13:01:03Z,1571230863,2019,13,1,289.5424,289.5424,84.6258,133.8114,1013.6,-999.00,-999.0,yes,yes,yes,300234066081180,Snow_Buoy,AWI,MOSAiC,North
2019-10-16T13:59:57Z,1571234397,2019,14,0,289.5833,289.5833,84.6266,133.769,1013.3,-999.00,-999.0,yes,yes,yes,300234066081180,Snow_Buoy,AWI,MOSAiC,North
2019-10-16T15:02:00Z,1571238121,2019,15,2,289.6264,289.6264,84.6276,133.731,1012.9,-999.00,-999.0,yes,yes,yes,300234066081180,Snow_Buoy,AWI,MOSAiC,North
2019-10-16T16:02:03Z,1571241724,2019,16,2,289.6681,289.6681,84.6284,133.7018,1012.6,-999.00,-999.0,yes,yes,yes,300234066081180,Snow_Buoy,AWI,MOSAiC,North
2019-10-16T17:00:57Z,1571245258,2019,17,1,289.709,289.709,84.6288,133.678,1012.3,-999.00,-999.0,yes,yes,yes,300234066081180,Snow_Buoy,AWI,MOSAiC,North
2019-10-16T18:02:00Z,1571248921,2019,18,2,289.7514,289.7514,84.6286,133.6578,1012.0,-999.00,-999.0,yes,yes,yes,300234066081180,Snow_Buoy,AWI,MOSAiC,North
2019-10-16T19:01:03Z,1571252463,2019,19,1,289.7924,289.7924,84.628,133.6402,1011.7,-999.00,-999.0,yes,yes,yes,300234066081180,Snow_Buoy,AWI,MOSAiC,North
2019-10-16T20:01:58Z,1571256118,2019,20,2,289.8347,289.8347,84.6268,133.6198,1011.6,-999.00,-999.0,yes,yes,yes,300234066081180,Snow_Buoy,AWI,MOSAiC,North
2019-10-16T21:02:00Z,1571259721,2019,21,2,289.8764,289.8764,84.6254,133.5948,1011.3,-999.00,-999.0,yes,yes,yes,300234066081180,Snow_Buoy,AWI,MOSAiC,North
2019-10-16T22:03:04Z,1571263384,2019,22,3,289.9188,289.9188,84.6244,133.5604,1010.9,-999.00,-999.0,yes,yes,yes,300234066081180,Snow_Buoy,AWI,MOSAiC,North
2019-10-16T23:01:58Z,1571266918,2019,23,2,289.9597,289.9597,84.6234,133.5192,1010.5,-999.00,-999.0,yes,yes,yes,300234066081180,Snow_Buoy,AWI,MOSAiC,North
2019-10-17T00:02:00Z,1571270521,2019,0,2,290.0014,290.0014,84.6228,133.4718,1010.3,-999.00,-999.0,yes,yes,yes,300234066081180,Snow_Buoy,AWI,MOSAiC,North
2019-10-17T01:03:04Z,1571274184,2019,1,3,290.0438,290.0438,84.6224,133.4268,1009.9,-999.00,-999.0,yes,yes,yes,300234066081180,Snow_Buoy,AWI,MOSAiC,North
2019-10-17T02:02:58Z,1571277779,2019,2,3,290.0854,290.0854,84.622,133.3884,1009.7,-999.00,-999.0,yes,yes,yes,300234066081180,Snow_Buoy,AWI,MOSAiC,North
2019-10-17T03:01:00Z,1571281260,2019,3,1,290.1257,290.1257,84.622,133.3564,1009.5,-999.00,-999.0,yes,yes,yes,300234066081180,Snow_Buoy,AWI,MOSAiC,North
2019-10-17T04:01:03Z,1571284863,2019,4,1,290.1674,290.1674,84.6222,133.3306,1009.3,-999.00,-999.0,yes,yes,yes,300234066081180,Snow_Buoy,AWI,MOSAiC,North
2019-10-17T05:00:57Z,1571288458,2019,5,1,290.209,290.209,84.6224,133.3162,1009.1,-999.00,-999.0,yes,yes,yes,300234066081180,Snow_Buoy,AWI,MOSAiC,North
2019-10-17T06:00:00Z,1571292000,2019,6,0,290.25,290.25,84.6222,133.313,1009.0,-999.00,-999.0,yes,yes,yes,300234066081180,Snow_Buoy,AWI,MOSAiC,North
2019-10-17T07:00:02Z,1571295603,2019,7,0,290.2917,290.2917,84.6218,133.3124,1008.7,-999.00,-999.0,yes,yes,yes,300234066081180,Snow_Buoy,AWI,MOSAiC,North
2019-10-17T08:00:57Z,1571299258,2019,8,1,290.334,290.334,84.6208,133.31,1008.7,-999.00,-999.0,yes,yes,yes,300234066081180,Snow_Buoy,AWI,MOSAiC,North
2019-10-17T09:00:00Z,1571302800,2019,9,0,290.375,290.375,84.6196,133.3036,1008.6,-999.00,-999.0,yes,yes,yes,300234066081180,Snow_Buoy,AWI,MOSAiC,North
2019-10-17T10:01:03Z,1571306463,2019,10,1,290.4174,290.4174,84.6184,133.2934,1008.7,-999.00,-999.0,yes,yes,yes,300234066081180,Snow_Buoy,AWI,MOSAiC,North
2019-10-17T10:01:03Z,1571306463,2019,1,0,290.4174,290.4174,84.6184,133.2934,1008.7,-1.4,-11.1,yes,yes,yes,300234066081180,Snow_Buoy,AWI,MOSAiC,North
